User: anonymous   Login
Location: Vale
(35.4830°N, 81.3830°W)
Time: 14:44:21
(UTC-04:00)
Language:

Oscar 11 - Orbit

View from above orbital plane
View from above orbital plane
View from above satellite
View from above satellite

Ground track
Ground track

The orbit data is extracted from the following two-line orbital elements,

1 14781U 84021B   17206.15695493 +.00000077 +00000-0 +15731-4 0  9999
2 14781 097.6943 250.4673 0010028 078.0516 282.1821 14.82912017795972
Epoch (UTC): 25 July 2017 03:46:00
Eccentricity: 0.0010028
inclination: 97.6943°
perigee height: 613 km
apogee height: 627 km
right ascension of ascending node: 250.4673°
argument of perigee: 78.0516°
revolutions per day: 14.82912017
mean anomaly at epoch: 282.1821°
orbit number at epoch: 79597

The dashed part of the orbit path shows where the satellite is in the earth's shadow,  

DLR